Wind_Speed
25 25 25 25 25 25 24 24 24 24 24 24 24 24 25 26 26 27 26 24 24 23 23 24 24 25 25 26 26 27 27 27 27 27 26 26 25 24 23 22 21 20 20 19 17 17 16 15 14
27 27 27 27 28 27 26 26 27 26 26 27 27 27 28 29 29 28 27 27 27 26 26 26 26 27 27 28 28 28 29 29 29 29 28 28 27 26 25 24 23 23 22 21 19 19 18 17 16
28 28 29 29 29 30 30 30 30 30 30 30 30 31 31 31 31 31 30 29 29 29 29 28 28 29 29 30 30 30 30 31 31 31 30 30 29 29 28 27 26 25 24 23 22 21 20 19 18
29 30 31 31 31 31 33 33 34 34 33 33 34 34 34 34 35 34 34 33 32 32 32 32 31 31 31 32 32 32 32 32 33 33 33 32 32 31 31 30 28 28 27 25 24 23 22 21 20
31 31 32 32 32 33 35 35 36 37 37 37 37 37 38 38 38 38 37 37 36 35 35 35 35 34 34 34 34 34 34 34 35 35 35 35 34 33 33 32 31 30 29 27 26 25 23 22 21
32 32 33 34 34 35 37 38 39 39 40 40 41 41 41 42 42 42 41 40 39 39 38 38 38 37 37 37 37 37 36 36 36 37 37 37 36 36 35 34 33 32 31 29 28 27 26 24 23
33 33 34 35 36 37 38 40 41 42 42 43 45 45 44 45 46 46 45 45 44 43 42 42 41 41 40 40 40 40 39 39 39 39 39 39 38 37 37 36 34 33 32 31 30 29 28 26 25
33 35 36 37 38 39 40 42 43 45 45 46 48 49 48 48 49 49 49 49 47 47 46 46 45 45 44 43 43 43 42 42 41 41 41 41 40 39 39 38 36 35 34 33 32 31 30 28 27
33 35 37 38 39 40 41 43 44 46 47 48 50 51 51 51 51 52 52 52 51 50 49 49 49 48 47 47 46 46 45 45 44 44 43 43 42 42 41 40 39 37 36 34 33 32 31 30 29
34 36 37 38 39 40 41 43 44 47 49 50 51 53 53 54 54 54 54 54 54 54 53 52 52 52 51 50 50 49 49 48 47 46 46 45 45 44 43 42 40 39 38 36 35 34 33 31 30
34 36 37 38 39 40 42 43 45 48 49 51 51 53 54 55 56 57 57 56 57 57 57 55 55 55 54 53 53 52 52 51 50 49 48 48 47 46 45 44 42 41 40 38 36 35 34 33 31
33 34 36 37 39 41 43 44 46 48 50 51 52 53 55 55 55 56 58 58 59 59 60 59 59 58 58 57 56 55 55 54 53 53 51 50 49 48 47 46 44 42 41 40 38 37 36 34 33
32 33 35 37 39 42 44 46 48 48 49 50 51 52 54 55 56 56 58 58 59 61 61 61 62 61 61 60 59 58 58 57 56 56 55 54 52 51 49 48 46 44 43 41 40 39 37 36 35
32 34 36 38 39 41 43 45 48 48 48 49 50 50 52 54 55 54 56 57 58 60 61 62 63 61 62 62 61 61 61 60 59 58 57 56 55 54 52 51 49 48 45 43 41 40 39 38 36
33 35 37 38 40 41 43 44 47 47 48 49 48 49 49 50 53 53 54 55 56 57 60 62 62 61 62 63 63 62 63 62 61 60 59 58 57 56 55 53 51 50 47 45 44 42 41 39 38
34 35 36 38 40 41 43 42 44 45 47 46 46 47 47 48 50 51 51 52 53 54 57 60 62 62 62 63 63 64 64 64 63 61 60 60 59 58 57 55 52 51 49 47 45 43 42 41 39
35 36 37 38 40 42 43 42 40 42 43 44 43 44 45 45 47 47 48 48 51 53 55 57 60 61 61 62 61 64 65 65 64 62 61 60 60 59 58 56 54 52 51 49 47 44 42 41 40
36 37 37 38 40 42 43 42 40 39 39 40 41 41 43 43 44 44 45 47 49 51 52 54 56 59 59 60 60 61 63 64 65 63 61 61 61 61 60 58 56 53 52 50 48 46 44 42 41
37 38 39 39 40 41 41 41 39 36 36 37 37 37 39 39 40 40 42 43 46 47 49 51 52 56 58 58 58 59 60 63 64 63 62 61 61 61 60 59 58 55 53 51 49 47 45 43 41
38 39 39 38 39 40 40 39 36 34 34 35 35 35 36 35 35 36 38 40 42 43 45 48 50 53 55 56 57 57 59 61 63 63 62 61 61 61 59 59 58 57 54 52 51 49 47 44 42
38 40 40 40 39 39 40 37 34 33 33 34 34 34 33 33 33 34 36 37 39 40 42 44 48 49 51 54 57 57 58 60 62 63 62 61 61 62 61 59 59 58 55 52 51 49 47 45 44
38 39 40 41 41 40 40 38 32 32 33 33 33 33 32 32 32 32 33 34 35 37 39 41 43 46 47 51 54 56 57 58 60 62 61 61 61 62 62 60 60 59 57 53 52 50 48 48 46
40 40 40 41 40 39 37 38 34 33 33 32 32 31 30 31 31 30 32 33 34 34 36 38 39 43 45 48 51 55 56 56 58 61 62 59 59 61 60 59 59 59 57 54 52 50 48 47 45
40 40 40 40 39 38 37 37 35 34 33 33 32 31 30 29 30 30 30 31 31 31 32 35 38 40 43 45 48 51 54 55 56 59 60 58 58 59 60 59 58 58 57 56 52 49 47 47 45
40 41 41 41 40 38 38 37 35 35 34 33 32 31 31 30 29 28 27 27 29 29 30 31 34 37 42 44 46 50 52 53 54 56 56 56 57 58 59 59 59 58 57 56 55 51 47 47 45
40 41 41 42 41 39 37 36 35 34 33 33 32 32 31 30 29 28 27 28 28 28 29 30 32 36 39 41 45 48 49 51 53 55 55 54 53 55 58 59 59 59 59 57 56 53 47 46 45
40 40 41 42 42 41 39 38 34 33 33 32 32 32 31 30 30 29 27 28 28 29 29 29 31 35 37 39 42 46 47 48 51 53 52 51 51 54 56 56 58 58 57 55 55 54 48 45 44
40 40 41 42 43 44 42 39 36 35 33 32 32 32 32 30 30 29 27 27 26 28 29 28 30 33 35 36 39 44 45 46 50 53 51 51 49 51 53 53 56 56 56 55 53 52 51 47 44
39 39 40 41 42 44 45 40 37 36 34 33 34 34 33 32 31 29 27 26 26 27 27 27 28 31 34 35 38 42 43 45 49 51 52 51 48 50 51 53 54 54 55 53 51 50 50 48 44
39 40 40 41 42 43 45 41 37 36 35 35 34 33 33 32 30 28 27 26 25 25 26 26 27 30 33 35 37 41 42 44 46 49 50 49 48 49 50 51 53 52 51 51 50 48 48 47 43
Wind_Direction
271 270 269 268 267 266 266 265 264 264 264 264 262 262 262 261 260 259 260 258 256 254 252 250 248 247 247 247 246 245 246 246 245 245 245 246 246 246 247 247 248 249 251 254 256 257 260 263 266
271 270 269 267 266 266 266 266 266 266 265 264 263 263 263 263 261 261 261 259 257 254 253 252 251 249 248 248 247 246 246 246 246 246 246 247 247 247 247 247 248 249 251 253 255 257 259 261 264
272 270 269 267 266 267 268 267 267 266 266 265 264 263 263 264 264 263 261 259 258 256 254 252 251 251 249 248 248 248 247 246 246 247 247 247 248 248 248 248 248 248 249 251 253 255 257 259 262
272 271 269 269 268 268 269 269 268 267 267 266 265 265 264 264 265 265 264 262 260 258 256 253 251 250 250 249 248 248 247 247 247 247 247 248 248 248 249 249 250 249 249 250 252 254 255 258 260
273 272 270 269 269 269 270 270 270 269 269 268 267 266 266 265 265 265 264 263 261 259 257 255 253 250 249 249 249 248 247 247 247 247 247 247 248 248 249 249 250 250 250 249 250 252 254 257 259
273 273 272 271 271 271 271 270 270 269 269 269 268 267 267 267 266 264 264 263 261 259 257 256 254 252 250 249 248 248 248 247 247 247 247 247 248 248 249 249 249 250 250 250 250 251 254 256 258
276 274 274 273 272 272 272 271 270 269 268 268 268 266 266 266 265 265 264 262 261 258 257 255 253 252 250 249 248 248 248 247 247 247 247 247 247 247 248 248 248 249 249 250 250 251 252 254 257
278 277 276 275 274 274 273 272 272 271 269 268 267 266 265 264 264 263 263 261 260 258 256 255 253 251 249 249 248 247 247 246 246 246 246 246 246 246 246 246 247 248 248 249 250 251 251 253 256
280 280 280 279 277 276 275 274 273 272 271 269 268 267 266 264 263 262 262 261 260 258 256 255 254 252 250 248 247 246 246 246 245 245 245 245 245 245 245 245 246 247 247 247 249 250 251 252 255
285 284 283 282 280 278 277 277 276 274 273 271 269 268 266 265 263 262 261 260 259 258 256 254 254 253 250 247 246 245 245 245 245 245 245 245 245 244 244 243 244 245 246 246 247 248 249 252 254
289 288 286 283 281 280 280 280 279 278 276 273 270 267 266 265 264 263 262 259 257 256 255 254 252 251 249 247 245 244 243 244 244 244 244 244 244 243 242 242 243 244 245 246 247 247 248 250 253
295 292 290 287 284 284 283 283 282 282 280 276 272 268 265 263 263 262 261 259 257 255 254 252 251 250 249 247 245 243 242 242 242 243 242 243 243 242 241 241 242 243 244 245 246 246 247 249 252
299 297 294 291 289 287 286 286 284 284 282 278 273 270 268 265 263 263 261 260 258 255 253 251 249 248 248 246 244 243 241 241 241 241 241 241 241 240 239 239 240 241 243 243 245 246 247 249 250
303 300 298 296 294 291 290 290 288 285 283 279 275 272 269 266 265 264 263 261 258 255 252 250 248 247 246 245 244 242 240 240 239 240 240 240 239 239 238 238 238 240 241 242 243 245 246 248 249
307 305 303 300 298 296 295 295 292 288 284 281 277 273 271 268 266 265 263 261 259 255 253 250 249 246 245 244 242 241 239 238 238 238 238 238 238 237 236 237 237 238 238 240 241 242 245 247 248
310 308 308 306 303 302 300 299 296 292 288 284 279 275 273 270 267 266 266 262 260 256 253 250 248 245 243 242 241 239 238 237 236 236 236 236 235 235 235 235 236 237 237 239 240 241 243 245 247
313 312 313 311 308 306 304 304 302 298 293 288 282 277 274 271 268 267 268 264 260 257 255 251 248 245 241 239 238 238 235 235 233 233 234 234 233 233 233 233 234 235 236 237 238 239 241 242 245
317 316 317 316 313 311 309 309 308 302 298 293 286 281 278 274 269 269 269 266 262 259 255 251 248 243 239 237 236 235 234 233 231 230 231 231 231 231 231 231 232 234 234 235 237 237 239 241 244
319 320 321 321 318 314 313 313 310 306 301 297 290 285 281 277 274 271 271 269 265 260 254 249 245 241 238 235 233 233 232 231 230 228 228 229 229 229 229 229 230 232 233 234 235 236 238 240 242
321 322 323 322 320 316 316 316 312 307 303 300 296 290 286 280 278 277 274 272 267 261 256 249 244 241 237 234 231 231 230 229 228 227 226 227 227 226 226 227 228 229 231 232 234 235 237 239 241
323 322 323 323 322 320 318 317 314 307 306 304 301 296 292 287 284 281 278 274 268 263 257 250 242 239 237 234 231 229 229 228 227 225 224 225 226 225 224 226 227 227 229 230 233 234 237 238 240
323 323 323 323 323 324 323 320 317 311 308 306 303 300 295 292 290 286 280 274 269 264 257 249 242 237 236 234 230 228 227 227 226 224 222 223 224 225 224 225 225 226 227 229 232 234 236 238 241
324 324 323 322 323 324 324 322 323 316 311 308 305 303 300 295 294 290 283 276 270 265 256 248 242 238 236 235 232 228 227 227 225 223 221 221 223 224 223 223 224 225 225 228 231 232 234 237 239
324 325 323 322 324 326 324 323 324 319 316 312 308 306 304 300 296 292 284 277 271 266 258 251 245 240 237 234 231 229 227 225 223 221 221 221 222 222 221 222 224 224 225 227 229 231 234 236 238
324 325 325 325 326 327 326 324 326 321 318 314 310 308 307 304 300 295 285 277 270 264 256 250 247 242 234 230 229 227 226 223 222 220 220 220 220 220 221 221 222 223 223 225 228 230 234 234 236
325 326 326 326 326 327 326 326 326 323 318 314 311 309 308 305 301 297 290 278 269 263 257 252 249 241 233 230 228 225 225 224 221 219 220 219 219 219 219 220 221 222 223 225 228 230 232 233 236
325 325 324 324 324 325 326 325 324 323 317 313 310 308 307 305 300 295 289 280 270 262 256 250 246 239 236 233 228 226 225 225 222 219 219 219 220 219 219 220 220 221 222 225 227 228 230 232 235
324 324 324 324 323 323 325 326 326 323 318 313 309 306 303 303 300 293 286 278 269 261 257 253 245 239 237 234 228 225 223 224 221 217 217 216 219 219 219 219 220 221 221 223 226 228 231 232 235
323 323 324 322 321 321 322 326 326 322 317 312 309 306 302 300 298 292 285 277 269 260 254 249 245 240 237 233 229 224 222 222 219 217 217 216 218 219 219 220 220 221 222 224 226 229 231 233 235
321 322 322 321 320 319 319 324 323 320 317 314 311 308 304 302 298 291 284 275 266 260 255 251 247 242 236 231 227 224 221 218 215 216 215 218 219 218 219 221 220 220 222 224 225 228 231 232 233
Height
5825 5825 5825 5826 5827 5827 5827 5828 5828 5830 5830 5830 5831 5831 5831 5832 5834 5837 5837 5837 5839 5840 5841 5842 5843 5845 5846 5847 5849 5850 5852 5854 5855 5857 5858 5860 5861 5863 5864 5865 5866 5867 5868 5869 5870 5870 5871 5871 5871
5819 5820 5820 5820 5820 5820 5822 5822 5823 5824 5824 5824 5824 5825 5825 5825 5827 5828 5830 5831 5833 5834 5836 5837 5838 5840 5841 5843 5844 5846 5847 5849 5851 5852 5854 5856 5857 5859 5860 5862 5863 5864 5865 5866 5867 5867 5868 5869 5869
5813 5813 5814 5813 5813 5814 5815 5816 5817 5817 5817 5817 5818 5818 5818 5819 5820 5821 5823 5825 5826 5828 5830 5832 5833 5834 5836 5837 5839 5841 5843 5844 5846 5848 5849 5851 5853 5854 5856 5857 5859 5860 5861 5862 5863 5864 5865 5866 5866
5807 5807 5807 5807 5807 5808 5808 5808 5809 5809 5810 5810 5810 5811 5811 5812 5812 5814 5815 5817 5819 5821 5823 5825 5827 5828 5830 5831 5833 5835 5837 5839 5841 5842 5844 5846 5848 5850 5851 5853 5854 5856 5857 5858 5860 5861 5862 5862 5863
5799 5799 5799 5799 5799 5800 5800 5800 5800 5800 5801 5801 5801 5802 5803 5804 5805 5806 5807 5809 5811 5813 5815 5817 5819 5821 5823 5825 5827 5829 5831 5833 5835 5837 5839 5840 5842 5844 5846 5848 5850 5851 5853 5854 5856 5857 5858 5859 5860
5792 5791 5791 5790 5791 5792 5791 5791 5791 5791 5791 5791 5791 5792 5794 5794 5795 5796 5798 5800 5802 5804 5806 5808 5811 5813 5816 5818 5820 5822 5824 5826 5828 5830 5832 5834 5836 5838 5840 5842 5844 5846 5848 5850 5851 5853 5854 5855 5856
5783 5782 5781 5782 5782 5782 5782 5781 5780 5780 5781 5781 5780 5782 5784 5784 5784 5785 5787 5789 5791 5794 5796 5799 5801 5804 5806 5809 5812 5814 5816 5819 5821 5823 5825 5828 5830 5832 5834 5836 5839 5841 5843 5845 5846 5848 5850 5851 5852
5773 5773 5772 5772 5771 5772 5771 5769 5769 5768 5769 5768 5767 5769 5771 5773 5773 5773 5775 5777 5780 5782 5785 5788 5791 5794 5797 5799 5802 5805 5808 5810 5813 5815 5818 5820 5823 5825 5827 5830 5832 5835 5837 5839 5841 5843 5845 5846 5848
5764 5763 5761 5761 5760 5760 5759 5757 5756 5755 5755 5755 5754 5755 5757 5759 5760 5762 5763 5765 5767 5770 5773 5775 5779 5782 5786 5789 5792 5795 5798 5801 5804 5807 5809 5812 5815 5817 5820 5823 5826 5828 5831 5833 5836 5838 5840 5841 5843
5755 5753 5752 5751 5748 5747 5746 5744 5743 5741 5741 5741 5741 5740 5741 5743 5745 5747 5749 5751 5753 5756 5759 5762 5765 5769 5773 5777 5780 5784 5787 5791 5794 5797 5800 5803 5807 5810 5813 5815 5818 5821 5824 5827 5829 5832 5834 5836 5838
5745 5743 5741 5739 5736 5734 5733 5732 5729 5727 5726 5725 5726 5726 5726 5727 5728 5730 5732 5735 5738 5740 5744 5748 5751 5755 5759 5763 5768 5772 5776 5780 5783 5787 5791 5794 5797 5801 5804 5807 5811 5814 5817 5820 5823 5826 5828 5830 5832
5737 5733 5730 5728 5725 5723 5720 5718 5715 5712 5711 5709 5708 5708 5709 5710 5711 5712 5714 5717 5720 5723 5727 5731 5735 5739 5744 5749 5754 5758 5763 5767 5772 5776 5780 5784 5788 5792 5796 5799 5803 5806 5810 5813 5816 5819 5821 5824 5826
5728 5724 5720 5717 5714 5711 5707 5704 5701 5698 5695 5692 5691 5691 5692 5692 5693 5694 5695 5697 5700 5704 5708 5713 5717 5722 5726 5732 5738 5744 5749 5754 5759 5763 5768 5773 5778 5782 5786 5790 5794 5798 5802 5805 5809 5812 5814 5817 5819
5720 5715 5711 5707 5703 5699 5695 5691 5686 5683 5679 5677 5675 5675 5674 5675 5675 5676 5677 5679 5681 5684 5688 5693 5698 5703 5708 5714 5720 5727 5733 5739 5744 5750 5755 5760 5766 5771 5776 5781 5785 5789 5794 5797 5801 5804 5807 5810 5812
5711 5707 5702 5697 5691 5687 5684 5680 5672 5668 5664 5661 5659 5659 5658 5658 5658 5659 5659 5660 5662 5665 5669 5673 5678 5684 5690 5696 5702 5709 5716 5722 5729 5735 5741 5747 5753 5759 5765 5770 5775 5780 5784 5788 5792 5796 5799 5802 5805
5703 5698 5693 5687 5681 5675 5672 5668 5661 5654 5650 5647 5645 5643 5643 5642 5641 5642 5642 5642 5644 5646 5650 5654 5659 5665 5671 5677 5684 5691 5698 5705 5713 5720 5727 5733 5740 5747 5753 5759 5764 5770 5775 5779 5784 5788 5791 5794 5798
5694 5689 5683 5678 5672 5665 5659 5654 5649 5642 5636 5633 5631 5629 5628 5628 5627 5626 5626 5626 5627 5629 5632 5636 5641 5646 5652 5659 5665 5672 5680 5687 5696 5704 5712 5719 5726 5733 5741 5747 5753 5758 5764 5769 5774 5779 5782 5786 5790
5686 5680 5674 5668 5662 5656 5648 5643 5638 5631 5626 5622 5619 5617 5615 5614 5613 5612 5611 5611 5612 5613 5615 5619 5623 5628 5634 5640 5648 5655 5662 5670 5679 5688 5697 5704 5712 5719 5727 5735 5741 5747 5754 5760 5765 5770 5774 5778 5782
5677 5672 5666 5660 5652 5646 5640 5634 5628 5622 5617 5612 5609 5607 5605 5603 5602 5600 5599 5597 5597 5598 5600 5603 5607 5612 5618 5625 5632 5640 5647 5655 5664 5672 5681 5689 5697 5706 5714 5722 5730 5737 5744 5750 5755 5761 5765 5770 5773
5670 5664 5658 5653 5645 5638 5632 5627 5620 5614 5609 5604 5600 5597 5595 5594 5592 5590 5587 5585 5584 5585 5586 5588 5593 5598 5603 5610 5618 5625 5633 5641 5649 5658 5666 5675 5684 5692 5701 5709 5718 5726 5733 5739 5745 5751 5756 5761 5765
5663 5656 5650 5644 5638 5631 5624 5620 5614 5607 5601 5596 5592 5589 5586 5583 5582 5579 5576 5574 5573 5573 5574 5575 5580 5585 5590 5596 5603 5610 5617 5625 5634 5643 5652 5661 5670 5679 5689 5698 5706 5715 5722 5730 5736 5742 5748 5752 5757
5657 5650 5642 5635 5629 5623 5616 5610 5608 5601 5595 5589 5585 5581 5578 5575 5572 5569 5566 5564 5563 5563 5563 5564 5568 5573 5578 5583 5589 5596 5603 5612 5621 5630 5639 5649 5658 5667 5677 5686 5694 5703 5712 5720 5726 5733 5739 5744 5748
5648 5642 5635 5628 5621 5616 5608 5602 5600 5593 5588 5583 5578 5574 5570 5566 5563 5560 5557 5554 5553 5552 5553 5555 5558 5562 5566 5571 5577 5584 5591 5599 5608 5617 5627 5636 5646 5654 5664 5674 5683 5692 5701 5710 5717 5723 5729 5735 5739
5641 5635 5629 5622 5615 5610 5603 5596 5592 5585 5580 5575 5570 5566 5562 5558 5555 5551 5548 5545 5544 5543 5544 5546 5549 5552 5556 5560 5566 5572 5579 5587 5595 5604 5615 5624 5634 5643 5653 5663 5672 5682 5691 5700 5708 5714 5720 5725 5731
5635 5628 5621 5614 5609 5604 5597 5590 5586 5578 5572 5567 5563 5558 5554 5550 5547 5543 5540 5538 5537 5536 5537 5539 5541 5543 5546 5550 5555 5562 5569 5577 5584 5594 5604 5613 5623 5633 5643 5652 5662 5671 5681 5689 5697 5704 5710 5716 5721
5627 5621 5614 5607 5601 5597 5592 5585 5582 5573 5566 5560 5556 5552 5548 5544 5540 5536 5533 5531 5530 5529 5530 5531 5532 5534 5537 5541 5547 5553 5560 5567 5575 5584 5594 5604 5613 5623 5632 5643 5652 5661 5670 5678 5687 5694 5700 5706 5712
5621 5614 5608 5601 5593 5589 5585 5580 5575 5568 5561 5555 5550 5546 5541 5538 5534 5530 5527 5525 5523 5522 5522 5523 5524 5527 5530 5534 5539 5545 5552 5559 5567 5576 5585 5595 5604 5613 5622 5633 5642 5651 5660 5668 5677 5684 5690 5697 5703
5615 5608 5601 5593 5585 5580 5577 5573 5569 5561 5554 5549 5544 5539 5535 5532 5528 5524 5521 5518 5516 5515 5515 5516 5517 5520 5523 5527 5532 5537 5544 5551 5559 5568 5577 5586 5595 5604 5614 5623 5633 5642 5650 5659 5667 5674 5681 5688 5694
5609 5602 5594 5587 5581 5573 5566 5569 5562 5555 5547 5542 5537 5532 5528 5524 5521 5517 5514 5512 5510 5509 5509 5509 5511 5513 5516 5520 5525 5530 5537 5544 5551 5560 5569 5577 5586 5596 5605 5614 5623 5633 5641 5649 5657 5665 5672 5679 5684
5602 5595 5589 5582 5576 5567 5559 5562 5556 5548 5540 5535 5530 5525 5521 5517 5514 5511 5508 5506 5504 5503 5503 5504 5505 5507 5510 5514 5518 5524 5530 5536 5545 5553 5561 5569 5578 5588 5597 5606 5615 5624 5632 5639 5648 5656 5663 5669 5676